This demonstration page uses our WeatherBlox Daily Observations layout. Learn more.

38.88101, -77.10428

Hourly Observations for September 11, 2015

Temp ( °F °C ) Dew Point ( °F °C ) Humidity (%) Winds ( mph kmh ) Pressure ( in mb ) Visibility ( mi km ) Precip ( " mm )
12:52 am 00:52 Cloudy 71 21.7 62 16.7 73 73 NNW 10 17 29.78 1008 10 16.0934 0 0
1:52 am 01:52 Cloudy 70 21.1 61 16.1 73 73 N 12 19 29.78 1008 10 16.0934 0 0
2:07 am 02:07 Mostly Cloudy 70 21 61 16 73 73 NNW 13 20 29.77 1008 10 16.0934 0 0
2:23 am 02:23 Mostly Cloudy 70 21 61 16 73 73 NNW 13 20 29.77 1008 10 16.0934 0 0
2:52 am 02:52 Mostly Cloudy 69 20.6 61 16.1 76 76 NNW 8 13 29.77 1008 10 16.0934 0 0
3:52 am 03:52 Partly Cloudy 68 20 61 16.1 78 78 NNW 7 11 29.76 1008 10 16.0934 0 0
4:52 am 04:52 Mostly Clear 67 19.4 61 16.1 81 81 NW 13 20 29.76 1008 10 16.0934 0 0
5:52 am 05:52 Partly Cloudy 66 18.9 60 15.6 81 81 NW 10 17 29.78 1009 10 16.0934 0 0
6:52 am 06:52 Mostly Sunny 65 18.3 59 15 81 81 NW 8 13 29.82 1010 10 16.0934 0 0
7:52 am 07:52 Partly Cloudy 67 19.4 59 15 76 76 NNW 10 17 29.84 1010 10 16.0934 0 0
8:52 am 08:52 Partly Cloudy 70 21.1 60 15.6 71 71 NNW 10 17 29.85 1011 10 16.0934 0 0
9:52 am 09:52 Partly Cloudy 73 22.8 60 15.6 64 64 NNW 10 17 29.86 1011 10 16.0934 0 0
10:52 am 10:52 Partly Cloudy 77 25 60 15.6 56 56 NW 10 17 29.86 1011 10 16.0934 0 0
11:52 am 11:52 Partly Cloudy 80 26.7 59 15 49 49 NW 8 13 29.85 1011 10 16.0934 0 0
12:52 pm 12:52 Partly Cloudy 82 27.8 58 14.4 44 44 NNW 8 13 29.84 1010 10 16.0934 0 0
1:52 pm 13:52 Sunny 84 28.9 55 12.8 37 37 W 6 9 29.82 1010 10 16.0934 0 0
2:52 pm 14:52 Partly Cloudy 85 29.4 53 11.7 33 33 WNW 8 13 29.81 1009 10 16.0934 0 0
3:52 pm 15:52 Partly Cloudy 87 30.6 52 11.1 30 30 N 6 9 29.8 1009 10 16.0934 0 0
4:52 pm 16:52 Partly Cloudy 85 29.4 50 10 30 30 Calm 29.79 1009 10 16.0934 0 0
5:52 pm 17:52 Mostly Sunny 85 29.4 52 11.1 32 32 NW 8 13 29.79 1009 10 16.0934 0 0
6:52 pm 18:52 Mostly Sunny 82 27.8 51 10.6 34 34 NNW 7 11 29.8 1009 10 16.0934 0 0
7:52 pm 19:52 Partly Cloudy 80 26.7 53 11.7 39 39 NW 5 7 29.8 1009 10 16.0934 0 0
8:52 pm 20:52 Mostly Clear 76 24.4 64 17.8 67 67 ESE 8 13 29.83 1010 10 16.0934 0 0
9:52 pm 21:52 Clear 74 23.3 64 17.8 71 71 SSE 3 6 29.83 1010 10 16.0934 0 0
10:52 pm 22:52 Clear 72 22.2 64 17.8 76 76 Calm 29.82 1010 10 16.0934 0 0
11:52 pm 23:52 Clear 73 22.8 64 17.8 74 74 SE 3 6 29.82 1010 10 16.0934 0 0

Powered by AerisWeather